Salina, KS

3:46 PM CST on December 05, 2016 (GMT -0600)
Salina Municipal

Weather History for KSLN - September, 2012

Change the Weather History Date:

Wednesday, September 19, 2012

  Actual Average Record
Temperature  
Mean Temperature 75 °F 69 °F  
Max Temperature 94 °F 80 °F 99 °F (1931)
Min Temperature 56 °F 57 °F 39 °F (1991)
Degree Days  
Heating Degree Days 0 2  
Month to date heating degree days 22 15  
Since 1 July heating degree days 22 16  
Cooling Degree Days 10 6  
Month to date cooling degree days 146 160  
Year to date cooling degree days 2024 1567  
Growing Degree Days 25 (Base 50)    
Moisture  
Dew Point 46 °F    
Average Humidity 41    
Maximum Humidity 62    
Minimum Humidity 20    
Precipitation  
Precipitation 0.00 in 0.09 in 2.28 in (1967)
Month to date precipitation 0.85 1.73  
Year to date precipitation 15.18 26.07  
Sea Level Pressure  
Sea Level Pressure 29.89 in    
Wind  
Wind Speed 14 mph (SSW)    
Max Wind Speed 29 mph    
Max Gust Speed 37 mph    
Visibility 10 miles    
Events      
T = Trace of Precipitation, MM = Missing Value Source: NWS Daily Summary

Daily Weather History Graph

Daily Weather History Graph

Search for Another Location

Airport or City:

Trip Planner

Search our weather history database for the weather conditions in past years. The results will help you decide how hot, cold, wet, or windy it might be!

Date:

Astronomy

Sep. 19, 2012 Rise Set
Actual Time 7:16 AM CDT 7:31 PM CDT
Civil Twilight 6:49 AM CDT 7:58 PM CDT
Nautical Twilight 6:18 AM CDT 8:29 PM CDT
Astronomical Twilight 5:46 AM CDT 9:00 PM CDT
Moon 11:24 AM CDT (9/19) 9:45 PM CDT (9/19)
Length of Visible Light 13h 08m
Length of Day
12h 15m
Waxing Crescent, 17% of the Moon is Illuminated
Sep 19
Waxing Crescent
Sep 22
First Quarter
Sep 29
Full
Oct 8
Last Quarter
Oct 15
New

Hourly Weather History & Observations

Time (CDT) Temp. Dew Point Humidity Pressure Visibility Wind Dir Wind Speed Gust Speed Precip Events Conditions
12:53 AM 63.0 °F 44.1 °F 50% 29.94 in 10.0 mi South 11.5 mph 20.7 mph N/A   Clear
1:53 AM 62.1 °F 44.1 °F 52% 29.94 in 10.0 mi South 12.7 mph 19.6 mph N/A   Clear
2:53 AM 62.1 °F 44.1 °F 52% 29.92 in 10.0 mi South 13.8 mph - N/A   Clear
3:53 AM 61.0 °F 45.0 °F 56% 29.91 in 10.0 mi South 15.0 mph 20.7 mph N/A   Clear
4:53 AM 61.0 °F 45.0 °F 56% 29.90 in 10.0 mi South 16.1 mph - N/A   Clear
5:53 AM 60.1 °F 44.1 °F 55% 29.92 in 10.0 mi South 11.5 mph - N/A   Clear
6:53 AM 57.9 °F 44.1 °F 60% 29.92 in 10.0 mi South 6.9 mph - N/A   Clear
7:53 AM 59.0 °F 45.0 °F 60% 29.94 in 10.0 mi South 11.5 mph - N/A   Clear
8:53 AM 64.0 °F 46.0 °F 52% 29.94 in 10.0 mi SSW 12.7 mph 20.7 mph N/A   Clear
9:53 AM 69.1 °F 46.9 °F 45% 29.93 in 10.0 mi SSW 17.3 mph - N/A   Clear
10:53 AM 73.9 °F 48.0 °F 40% 29.92 in 10.0 mi SSW 15.0 mph - N/A   Clear
11:53 AM 79.0 °F 48.9 °F 35% 29.91 in 10.0 mi South 12.7 mph - N/A   Clear
12:53 PM 84.0 °F 51.1 °F 32% 29.89 in 10.0 mi South 12.7 mph - N/A   Clear
1:53 PM 87.1 °F 51.1 °F 29% 29.87 in 10.0 mi SSW 11.5 mph 20.7 mph N/A   Clear
2:53 PM 91.0 °F 51.1 °F 25% 29.83 in 10.0 mi SSW 9.2 mph - N/A   Clear
3:53 PM 93.0 °F 48.9 °F 22% 29.81 in 10.0 mi South 15.0 mph 23.0 mph N/A   Clear
4:53 PM 93.0 °F 46.9 °F 20% 29.79 in 10.0 mi South 18.4 mph 24.2 mph N/A   Clear
5:53 PM 91.9 °F 48.9 °F 23% 29.78 in 10.0 mi South 18.4 mph 27.6 mph N/A   Clear
6:53 PM 87.1 °F 48.9 °F 27% 29.79 in 10.0 mi South 13.8 mph - N/A   Clear
7:43 PM 84.2 °F 44.6 °F 25% 29.85 in 10.0 mi NNW 20.7 mph 27.6 mph N/A   Clear
7:53 PM 82.4 °F 41.0 °F 23% 29.85 in 10.0 mi NNW 23.0 mph 28.8 mph N/A   Clear
8:53 PM 79.0 °F 39.0 °F 24% 29.88 in 10.0 mi North 20.7 mph 31.1 mph N/A   Clear
9:53 PM 77.0 °F 39.9 °F 26% 29.93 in 10.0 mi North 15.0 mph 23.0 mph N/A   Clear
10:53 PM 71.1 °F 42.1 °F 35% 29.96 in 10.0 mi North 12.7 mph - N/A   Clear
11:53 PM 71.1 °F 39.0 °F 31% 29.97 in 10.0 mi NNE 11.5 mph - N/A   Clear